This demonstration page uses our WeatherBlox Daily Observations layout. Learn more.

Left ArrowRight Arrow

Hourly Observations for May 20, 2022

Temp ( °F °C ) Dew Point ( °F °C ) Humidity (%) Winds ( mph kmh ) Pressure ( in mb ) Visibility ( mi km ) Precip ( " mm )
12:53 am 00:53 Clear 71 21.7 67 19.4 87 87 Calm 29.84 1011 10 16 0.00 0.00
1:53 am 01:53 Clear 68 20 66 18.9 93 93 Calm 29.84 1010 9 14 0.00 0.00
2:53 am 02:53 Clear 74 23.3 67 19.4 79 79 SW 5 7 29.84 1011 10 16 0.00 0.00
3:53 am 03:53 Clear 72 22.2 67 19.4 84 84 SW 5 7 29.85 1011 10 16 0.00 0.00
4:53 am 04:53 Clear 71 21.7 66 18.9 84 84 Calm 29.87 1012 10 16 0.00 0.00
5:53 am 05:53 Clear 68 20 66 18.9 93 93 Calm 29.89 1012 10 16 0.00 0.00
6:53 am 06:53 Partly Cloudy 69 20.6 66 18.9 90 90 Calm 29.91 1013 10 16 0.00 0.00
7:02 am 07:02 Mostly Cloudy 68 20 65 18.3 90 90 Calm 29.93 1013 8 13 0.00 0.00
7:40 am 07:40 Cloudy 70 21.1 67 19.4 90 90 SSW 5 7 29.93 1014 10 16 0.00 0.00
7:53 am 07:53 Cloudy 71 21.7 67 19.4 87 87 VRB 6 9 29.94 1014 10 16 0.00 0.00
8:53 am 08:53 Mostly Cloudy 72 22.2 66 18.9 82 82 WSW 8 13 29.95 1014 10 16 0.00 0.00
9:07 am 09:07 Partly Cloudy 73 22.8 67 19.4 81 81 SSW 9 15 29.95 1014 10 16 0.00 0.00
9:53 am 09:53 Mostly Sunny 75 23.9 65 18.3 71 71 WSW 10 17 29.96 1015 10 16 0.00 0.00
10:53 am 10:53 Sunny 79 26.1 65 18.3 62 62 SW 8 13 29.96 1015 10 16 0.00 0.00
11:53 am 11:53 Sunny 82 27.8 64 17.8 55 55 SW 10 17 29.96 1015 10 16 0.00 0.00
12:53 pm 12:53 Partly Cloudy 82 27.8 64 17.8 55 55 SSW 9 15 29.97 1015 10 16 0.00 0.00
1:53 pm 13:53 Partly Cloudy 84 28.9 64 17.8 51 51 SSW 7 11 29.96 1015 10 16 0.00 0.00
2:53 pm 14:53 Mostly Sunny 85 29.4 61 16.1 45 45 SSW 12 19 29.94 1014 10 16 0.00 0.00
3:53 pm 15:53 Partly Cloudy 86 30 61 16.1 43 43 S 13 20 29.93 1014 10 16 0.00 0.00
4:53 pm 16:53 Mostly Sunny 88 31.1 60 15.6 39 39 SSW 13 20 29.93 1014 10 16 0.00 0.00
5:53 pm 17:53 Mostly Sunny 88 31.1 59 15 38 38 SW 10 17 29.93 1014 10 16 0.00 0.00
6:53 pm 18:53 Sunny 86 30 59 15 40 40 SSW 7 11 29.93 1014 10 16 0.00 0.00
7:53 pm 19:53 Sunny 84 28.9 62 16.7 48 48 S 6 9 29.94 1014 10 16 0.00 0.00
8:53 pm 20:53 Partly Cloudy 82 27.8 63 17.2 53 53 S 7 11 29.96 1014 10 16 0.00 0.00
9:53 pm 21:53 Clear 80 26.7 64 17.8 58 58 SSW 5 7 29.97 1015 10 16 0.00 0.00
10:53 pm 22:53 Mostly Clear 79 26.1 64 17.8 60 60 SSW 5 7 30.00 1016 10 16 0.00 0.00
11:53 pm 23:53 Clear 77 25 65 18.3 66 66 SSE 7 11 30.02 1017 10 16 0.00 0.00

Powered by AerisWeather